Location: Unspecified
(56.5167°N, 0.0000°E)
Time: 23:10:56
(UTC+01:00)

Cosmos 1674 - Visible Passes

Search period start: 18 January 2017 00:00
Search period end: 28 January 2017 00:00
Orbit: 500 x 523 km, 82.5° (Epoch: 18 January)

Date Brightness Start Highest point End Pass type
(mag) Time Alt. Az. Time Alt. Az. Time Alt. Az.
18 Jan 3.8 17:59:07 10° SE 18:02:17 25° E 18:05:31 10° NNE visible
18 Jan 4.0 19:34:07 10° SW 19:37:46 41° WNW 19:41:28 10° N visible
19 Jan 4.0 17:43:06 10° SE 17:46:04 21° E 17:49:03 10° NE visible
19 Jan 3.6 19:17:41 10° SSW 19:21:25 49° WNW 19:25:13 10° N visible
20 Jan 3.3 19:01:18 10° SSW 19:05:06 59° WNW 19:08:58 10° N visible
20 Jan 6.0 20:40:58 10° WNW 20:41:39 10° NW 20:42:20 10° NW visible
21 Jan 3.0 18:44:57 10° SSW 18:48:48 71° WNW 18:52:41 10° N visible
21 Jan 5.8 20:23:40 10° WNW 20:25:13 12° NW 20:26:46 10° NNW visible
22 Jan 2.7 18:28:37 10° SSW 18:32:28 85° W 18:36:24 10° NNE visible
22 Jan 5.7 20:06:44 10° W 20:08:47 14° WNW 20:10:52 10° NNW visible
23 Jan 2.7 18:12:19 10° S 18:16:11 80° E 18:20:05 10° NNE visible
23 Jan 5.6 19:49:56 10° W 19:52:22 16° WNW 19:54:50 10° NNW visible
24 Jan 2.7 17:56:04 10° S 17:59:53 66° E 18:03:45 10° NNE visible
24 Jan 5.4 19:33:14 10° WSW 19:35:58 18° WNW 19:38:44 10° NNW visible
25 Jan 5.2 19:16:35 10° WSW 19:19:34 21° WNW 19:22:36 10° NNW visible
26 Jan 5.0 18:59:58 10° WSW 19:03:11 24° WNW 19:06:26 10° N visible
27 Jan 4.7 18:43:26 10° SW 18:46:49 28° WNW 18:50:14 10° N visible
